AirNav   ProFlight Series 2 Aviation Headset
 
 1083 users online  

26FL HCA Raulerson Hospital Heliport
Okeechobee, Florida, USA

GOING TO OKEECHOBEE?


FAA INFORMATION EFFECTIVE 16 JULY 2020

Location

FAA Identifier: 26FL
Lat/Long: 27-15-32.7700N 080-49-44.7700W
27-15.546167N 080-49.746167W
27.2591028,-80.8291028
(estimated)
Elevation: 34 ft. / 10 m (estimated)
Variation: 03W (1985)
From city: 1 mile N of OKEECHOBEE, FL
Time zone: UTC -4 (UTC -5 during Standard Time)
Zip code: 34972

Heliport Operations

Heliport use: Private use, MEDICAL
Activation date: 09/1989
Control tower: no
ARTCC: MIAMI CENTER
FSS: SAINT PETERSBURG FLIGHT SERVICE STATION
Attendance: UNATNDD
Segmented circle: no
Lights: FOR PERIMETER LGTS CALL 863-763-2151, EXTN 7255.

Heliport Communications

WX AWOS-3 at OBE (1.2 nm W): 118.675 (863-467-1148)

Nearby radio navigation aids

VOR radial/distance  VOR name  Freq  Var
PHKr346/29.5PAHOKEE VOR/DME115.4000E
TRVr223/31.0TREASURE VORTAC117.3007W
LBVr048/39.6LA BELLE VORTAC110.4001E

 
NDB name  Hdg/Dist  Freq  Var  ID
FORT PIERCE248/27.927507WFPR ..-. .--. .-.
UNITED314/33.740505WUTX ..- - -..-

Heliport Services

Runway Information

Helipad H1

Dimensions: 40 x 40 ft. / 12 x 12 m
Surface: concrete
Runway edge lights: PERI
Latitude: 27-15.546167N
Longitude: 080-49.746167W
Elevation: 34.0 ft.
Traffic pattern: leftleft

Heliport Ownership and Management from official FAA records

Ownership: Privately-owned
Owner: HCA
P.O. BOX 1307
OKEECHOBEE, FL 34973-1307
Phone (863) 763-2151
Manager: BENNY MATHEW, DIR OF OPS
P.O. BOX 1307
OKEECHOBEE, FL 34973-1307
Phone 863-824-2799
EXTENSION 185

Additional Remarks

OBSTRUCTION: 23 FT LIGHT POLES 75 FT TO SE AND 70FT SW
FOR CD CTC MIAMI ARTCC AT 305-716-1731.

Instrument Procedures

There are no published instrument procedures at 26FL.

Some nearby airports with instrument procedures:

KOBE - Okeechobee County Airport (1 nm W)
KFPR - Treasure Coast International Airport (28 nm NE)
KPHK - Palm Beach County Glades Airport (29 nm S)
KSEF - Sebring Regional Airport (30 nm NW)
KVRB - Vero Beach Regional Airport (32 nm NE)
 
Loc | Ops | Rwys | IFR | FBO | Links
Com | Nav | Svcs | Stats | Notes


 
Area around 26FL (HCA Raulerson Hospital Heliport)
 
Road maps at: MapQuest Bing Google
 
Aerial photo
No photo
 
Sectional chart

 
Airport distance calculator
Flying to HCA Raulerson Hospital Heliport? Find the distance to fly.

From to 26FL

Sunrise and sunset
Times for 10-Aug-2020
 Local
(UTC-4)
 Zulu
(UTC)
Morning civil twilight06:2910:29
Sunrise06:5310:53
Sunset20:0400:04
Evening civil twilight20:2800:28

Current date and time
Zulu (UTC)  10-Aug-2020 13:06:33
Local (UTC-4)  10-Aug-2020 09:06:33
 
METAR
KOBE 101255Z AUTO 00000KT 10SM CLR 27/25 A3011 RMK AO2
TAF
KFPR 
28nm NE 
101133Z 1012/1112 VRB04KT P6SM FEW025 FEW250 FM101500 10005KT P6SM SCT030 SCT250 FM101800 09010KT P6SM VCTS SCT035CB SCT250 FM102300 12007KT P6SM SCT040 BKN250
KVRB 
32nm NE 
101133Z 1012/1112 VRB04KT P6SM FEW025 FEW250 FM101500 10005KT P6SM SCT030 SCT250 FM101800 09010KT P6SM VCTS SCT035CB SCT250 FM102300 12007KT P6SM SCT040 BKN250
KSUA 
33nm E 
101133Z 1012/1112 VRB04KT P6SM SCT020 SCT250 FM101500 09005KT P6SM SCT030 SCT250 FM101800 09010KT P6SM VCTS SCT035CB SCT250 FM102300 11007KT P6SM SCT040 BKN250
NOTAMs
Click for the latest NOTAMs
NOTAMs are issued by the DoD/FAA and will open in a separate window not controlled by AirNav.

 

 
 

Would you like to see your business listed on this page?

 If your business provides an interesting product or service to pilots, flight crews, aircraft, or users of the HCA Raulerson Hospital Heliport, you should consider listing it here.  To start the listing process, click on the button below
 
Add a business
 

Other Pages about HCA Raulerson Hospital Heliport

Update a link
 
Copyright © AirNav, LLC. All rights reserved. Privacy Policy  Contact